Hourly Weather Roundup
Issued by NWS Central Illinois

Current Version | Previous Version | Text Only | Print | Product List | Glossary On
Versions: 1 2 3 4 5 6 7 8 9 10 11 12 13 14 15 16 17 18 19 20 21 22 23 24 25 26 27 28 29 30 31 32 33 34 35 36 37 38 39 40 41 42 43 44 45 46 47 48 49 50
000
NZUS43 KILX 070910
HWRILX

AREA WEATHER ROUNDUP
NATIONAL WEATHER SERVICE, LINCOLN IL
400 AM CDT TUE JUL 07 2015


CITY           SKY/WX    TMP DP  RH WIND       PRES   REMARKS
BLOOMINGTON    LGT RAIN  72  72 100 SW5       29.87F
CHAMPAIGN      CLOUDY    75  73  93 S10       29.87F
DANVILLE       LGT RAIN  75  73  95 S12G17    29.85F
DECATUR        HVY RAIN  74  71  91 W12       29.87S FOG
EFFINGHAM      CLOUDY    75  71  87 SE3       29.91F
FLORA          CLOUDY    76  73  90 S9        29.92F
GALESBURG      DRIZZLE   64  62  94 N14       29.91R
JACKSONVILLE   RAIN      73  71  94 S3        29.89R
LACON          RAIN      70  68  95 NW13      29.85S
LAWRENCEVILLE  CLOUDY    76  73  91 S10       29.93F
LITCHFIELD     CLOUDY    74  72  91 S8        29.88S
$$


CITY           SKY/WX    TMP DP  RH WIND       PRES   REMARKS
LINCOLN        CLOUDY    73  72  94 CALM      29.87R
MACOMB         CLOUDY    65  64  99 N12       29.92R FOG
MATTOON        CLOUDY    75  73  93 S9        29.88F
MT CARMEL AP   CLOUDY    79  72  78 SW12G18   29.93F HX  82
OLNEY-NOBLE AP MOCLDY    73  72  94 S6        29.92F
PARIS          CLOUDY    75  73  94 S8        29.90F
PEORIA         CLOUDY    73  70  90 W5        29.86F
PONTIAC        LGT RAIN  72  72 100 CALM      29.86F
RANTOUL        CLOUDY    77  74  91 SW10      29.86F
ROBINSON       CLOUDY    76  73  91 S7        29.92F
SPRINGFIELD    HVY RAIN  73  70  90 W14       29.87S FOG
TAYLORVILLE    CLOUDY    75  72  88 SW5       29.87S
$$

...REGIONAL REPORTS...


CITY           SKY/WX    TMP DP  RH WIND       PRES   REMARKS
CHICAGO O`HARE CLOUDY    71  69  93 W6        29.84S
KANKAKEE       LGT RAIN  71  71  99 SW6       29.87S
MOLINE         CLOUDY    64  58  80 N9        29.91S HAZE
MOUNT STERLING NOT AVBL
MOUNT VERNON   CLOUDY    75  70  83 SW9       29.92F
PITTSFIELD     LGT RAIN  72  70  93 CALM      29.89F
QUINCY         LGT RAIN  68  67  96 N15       29.89S
ROCKFORD       LGT RAIN  63  59  87 N14       29.91R FOG
$$


CITY           SKY/WX    TMP DP  RH WIND       PRES   REMARKS
BURLINGTON     CLOUDY    64  63  96 N7        29.92S FOG
CEDAR RAPIDS   CLEAR     60  58  92 N10       29.96R FOG
DES MOINES     CLEAR     62  52  69 N15G22    30.01S
KIRKSVILLE     CLOUDY    65  59  81 N10       29.96S HAZE
OTTUMWA        CLOUDY    62  58  86 N12       29.96R FOG
ST LOUIS       CLOUDY    81  71  71 W13       29.89R HX  85
$$


CITY           SKY/WX    TMP DP  RH WIND       PRES   REMARKS
TERRE HAUTE    CLOUDY    76  73  91 S10       29.91F
EVANSVILLE     MOCLDY    77  72  84 SW10      29.96F
INDIANAPOLIS   CLOUDY    76  70  82 S13       29.91F
LAFAYETTE      CLOUDY    76  72  87 SW9       29.87F
MADISON        CLOUDY    62  57  83 N12       29.92F HAZE
MILWAUKEE      LGT RAIN  59  57  93 N10       29.90R FOG
$$





USA.gov is the U.S. government's official web portal to all federal, state and local government web resources and services.